Regional Weather Roundup
Issued by NWS

Home | Current Version | Previous Version | Graphics & Text | Print | Product List | Glossary On
Versions: 1 2 3 4 5 6 7 8 9 10 11 12 13 14 15 16 17 18 19 20 21 22 23 24 25 26 27 28 29 30 31 32 33 34 35 36 37 38 39 40 41 42 43 44 45 46 47 48 49 50
000
ASUS43 KLSX 111407
RWRMO

WEATHER SUMMARY FOR MISSOURI
NATIONAL WEATHER SERVICE SPRINGFIELD MO
800 AM CST MON DEC 11 2017

NOTE: "FAIR" INDICATES FEW OR NO CLOUDS BELOW 12,000 FEET WITH NO
       SIGNIFICANT WEATHER AND/OR OBSTRUCTIONS TO VISIBILITY.
       CURRENT SKY AND/OR WEATHER CONDITIONS ARE NOT AVAILABLE FOR
       CHILLICOTHE AND FARMINGTON.

MOZ001>031-035>038-043-044-053-054-111500-
...NORTHERN AND WESTERN MISSOURI...

CITY           SKY/WX    TMP DP  RH WIND       PRES   REMARKS
KANSAS CTY INT CLOUDY    37  18  46 W10       29.95S WCI  30
KANSAS C DTWN  CLOUDY    38  21  50 SW7       29.96S
LEE`S SUMMIT   PTCLDY    41  19  41 W12       29.96S
ST JOSEPH      CLEAR     34  21  59 S5        29.94F WCI  30
CHILLICOTHE      N/A     37  22  54 SW5       29.89F
KIRKSVILLE     PTCLDY    37  25  61 SW10      29.82F WCI  30

$$
MOZ066>068-077>081-088>096-101>105-111500-
...SOUTHWEST MISSOURI...

CITY           SKY/WX    TMP DP  RH WIND       PRES   REMARKS
SPRINGFIELD    CLEAR     40  23  50 SW8       30.05S
JOPLIN         CLEAR     46  21  37 SW13      30.08S
BRANSON        CLEAR     46  18  31 SW10      30.09F

$$
MOZ032>034-039>042-045>050-055>058-069>072-111500-
...CENTRAL MISSOURI...

CITY           SKY/WX    TMP DP  RH WIND       PRES   REMARKS
COLUMBIA       PTCLDY    37  27  67 SW12      29.91F WCI  29
JEFFERSON CITY CLEAR     38  24  57 CALM      29.94F
ROLLA          CLEAR     41  23  48 SW16      29.97F
SEDALIA        PTCLDY    42  23  46 SW17G23   29.94F
WHITEMAN AFB   PTCLDY    40  20  44 W12       29.90F
WARRENSBURG    MOCLDY    37  21  52 SW9       29.95S
OSAGE BEACH    CLEAR     40  23  50 SW7       29.98F

$$
MOZ051-052-059>065-111500-
...EAST CENTRAL MISSOURI...

CITY           SKY/WX    TMP DP  RH WIND       PRES   REMARKS
ST LOUIS INTL  MOCLDY    38  28  67 S7        29.96F
SPIRIT OF STL  MOCLDY    31  28  89 CALM      29.95F
ST CHARLES     CLOUDY    30  25  81 NE3       29.96F

$$
MOZ072>076-082>087-097>100-106>115-111500-
...SOUTH CENTRAL AND SOUTHEAST MISSOURI...

CITY           SKY/WX    TMP DP  RH WIND       PRES   REMARKS
CAPE GIRARDEAU CLEAR     29  25  85 E5        30.08F WCI  24
FARMINGTON     CLEAR     34  25  69 S5        30.03F WCI  30
POPLAR BLUFF   CLEAR     33  27  78 SW6       30.09F WCI  28
WEST PLAINS    CLEAR     38  24  57 SW7       30.08F

$$


USA.gov is the U.S. government's official web portal to all federal, state and local government web resources and services.